| time (UTC) | temp F | wind direction | speed MPH | gust MPH | rain 1hr in | rain 24hr in | rain mn in | humidity % | barometer mb |
| 20260506201605 | 59 | 132 | 4.0 | 13.0 | 0.00 | 0.00 | 0.00 | 94 | 1007.6 |
| 20260506201106 | 59 | 214 | 2.0 | 8.0 | 0.00 | 0.00 | 0.00 | 94 | 1007.6 |
| 20260506200607 | 59 | 194 | 3.0 | 8.0 | 0.00 | 0.00 | 0.00 | 94 | 1007.6 |
| 20260506200106 | 59 | 212 | 1.0 | 6.0 | 0.00 | 0.00 | 0.00 | 94 | 1007.6 |
| 20260506195105 | 59 | 168 | 4.0 | 6.0 | 0.00 | 0.00 | 0.00 | 94 | 1007.8 |
| 20260506194606 | 59 | 201 | 2.0 | 5.0 | 0.00 | 0.00 | 0.00 | 94 | 1007.8 |
| 20260506194106 | 59 | 219 | 3.0 | 8.0 | 0.00 | 0.00 | 0.00 | 93 | 1007.8 |
| 20260506193106 | 60 | 190 | 4.0 | 7.0 | 0.00 | 0.00 | 0.00 | 93 | 1007.9 |
| 20260506192606 | 60 | 239 | 3.0 | 7.0 | 0.00 | 0.00 | 0.00 | 93 | 1007.9 |
| 20260506192106 | 60 | 210 | 3.0 | 6.0 | 0.00 | 0.00 | 0.00 | 93 | 1008.0 |
| 20260506191606 | 60 | 211 | 2.0 | 8.0 | 0.00 | 0.00 | 0.00 | 93 | 1007.9 |
| 20260506190607 | 60 | 175 | 3.0 | 8.0 | 0.00 | 0.00 | 0.00 | 92 | 1007.9 |
| 20260506190105 | 60 | 224 | 3.0 | 8.0 | 0.00 | 0.00 | 0.00 | 92 | 1008.1 |
| 20260506185606 | 61 | 180 | 2.0 | 7.0 | 0.00 | 0.00 | 0.00 | 93 | 1007.9 |
| 20260506185106 | 61 | 181 | 2.0 | 5.0 | 0.00 | 0.00 | 0.00 | 93 | 1007.8 |
| 20260506184607 | 61 | 195 | 3.0 | 7.0 | 0.00 | 0.00 | 0.00 | 92 | 1007.9 |
| 20260506184106 | 61 | 190 | 2.0 | 6.0 | 0.00 | 0.00 | 0.00 | 92 | 1008.0 |
| 20260506183605 | 62 | 187 | 2.0 | 7.0 | 0.00 | 0.00 | 0.00 | 90 | 1008.1 |
| 20260506183105 | 62 | 197 | 3.0 | 7.0 | 0.00 | 0.00 | 0.00 | 88 | 1008.3 |
| 20260506182605 | 62 | 165 | 3.0 | 6.0 | 0.00 | 0.00 | 0.00 | 87 | 1008.4 |
| 20260506182105 | 63 | 186 | 2.0 | 8.0 | 0.00 | 0.00 | 0.00 | 87 | 1008.4 |
| 20260506181606 | 63 | 184 | 3.0 | 8.0 | 0.00 | 0.00 | 0.00 | 86 | 1008.5 |
| 20260506181105 | 64 | 221 | 3.0 | 8.0 | 0.00 | 0.00 | 0.00 | 84 | 1008.7 |
| 20260506180605 | 64 | 244 | 3.0 | 6.0 | 0.00 | 0.00 | 0.00 | 83 | 1008.6 |
| 20260506180107 | 64 | 212 | 2.0 | 5.0 | 0.00 | 0.00 | 0.00 | 81 | 1008.6 |
| 20260506175605 | 65 | 241 | 3.0 | 7.0 | 0.00 | 0.00 | 0.00 | 79 | 1008.7 |
| 20260506175105 | 66 | 219 | 3.0 | 7.0 | 0.00 | 0.00 | 0.00 | 77 | 1008.9 |
| 20260506174105 | 67 | 185 | 3.0 | 10.0 | 0.00 | 0.00 | 0.00 | 73 | 1009.0 |
| 20260506173606 | 68 | 230 | 4.0 | 9.0 | 0.00 | 0.00 | 0.00 | 71 | 1009.0 |
| 20260506172606 | 69 | 196 | 5.0 | 15.0 | 0.00 | 0.00 | 0.00 | 64 | 1008.5 |
| 20260506172106 | 69 | 177 | 5.0 | 13.0 | 0.00 | 0.00 | 0.00 | 64 | 1008.6 |
| 20260506171605 | 70 | 208 | 3.0 | 12.0 | 0.00 | 0.00 | 0.00 | 63 | 1008.3 |
| 20260506171106 | 70 | 201 | 5.0 | 13.0 | 0.00 | 0.00 | 0.00 | 62 | 1008.3 |
| 20260506170605 | 70 | 214 | 4.0 | 14.0 | 0.00 | 0.00 | 0.00 | 62 | 1008.2 |
| 20260506170106 | 71 | 204 | 3.0 | 8.0 | 0.00 | 0.00 | 0.00 | 60 | 1008.2 |
| 20260506165606 | 71 | 227 | 2.0 | 6.0 | 0.00 | 0.00 | 0.00 | 61 | 1008.1 |
| 20260506165107 | 71 | 254 | 2.0 | 12.0 | 0.00 | 0.00 | 0.00 | 61 | 1008.1 |
| 20260506164105 | 71 | 220 | 4.0 | 10.0 | 0.00 | 0.00 | 0.00 | 60 | 1008.1 |
| 20260506163606 | 71 | 262 | 3.0 | 12.0 | 0.00 | 0.00 | 0.00 | 59 | 1007.9 |
| 20260506163105 | 71 | 205 | 3.0 | 10.0 | 0.00 | 0.00 | 0.00 | 60 | 1008.3 |
| 20260506162606 | 71 | 185 | 2.0 | 9.0 | 0.00 | 0.00 | 0.00 | 61 | 1008.1 |
| 20260506162106 | 70 | 218 | 3.0 | 8.0 | 0.00 | 0.00 | 0.00 | 60 | 1008.4 |
| 20260506161106 | 70 | 211 | 3.0 | 9.0 | 0.00 | 0.00 | 0.00 | 60 | 1008.5 |
| 20260506160606 | 70 | 246 | 6.0 | 14.0 | 0.00 | 0.00 | 0.00 | 60 | 1008.8 |
| 20260506160105 | 70 | 234 | 3.0 | 10.0 | 0.00 | 0.00 | 0.00 | 62 | 1008.7 |
| 20260506155606 | 70 | 183 | 3.0 | 12.0 | 0.00 | 0.00 | 0.00 | 62 | 1008.8 |
| 20260506155107 | 70 | 223 | 2.0 | 10.0 | 0.00 | 0.00 | 0.00 | 62 | 1008.9 |
| 20260506154106 | 69 | 176 | 3.0 | 7.0 | 0.00 | 0.00 | 0.00 | 63 | 1008.8 |
| 20260506153607 | 69 | 200 | 2.0 | 7.0 | 0.00 | 0.00 | 0.00 | 64 | 1008.9 |
| 20260506153106 | 69 | 208 | 3.0 | 8.0 | 0.00 | 0.00 | 0.00 | 64 | 1009.0 |
| 20260506152605 | 69 | 227 | 5.0 | 10.0 | 0.00 | 0.00 | 0.00 | 64 | 1009.1 |
| 20260506152105 | 69 | 222 | 4.0 | 8.0 | 0.00 | 0.00 | 0.00 | 64 | 1009.3 |
| 20260506151605 | 69 | 205 | 2.0 | 9.0 | 0.00 | 0.00 | 0.00 | 64 | 1009.3 |
| 20260506151105 | 69 | 197 | 3.0 | 10.0 | 0.00 | 0.00 | 0.00 | 64 | 1009.3 |
| 20260506150605 | 69 | 230 | 3.0 | 8.0 | 0.00 | 0.00 | 0.00 | 64 | 1009.4 |
| 20260506150106 | 69 | 214 | 5.0 | 9.0 | 0.00 | 0.00 | 0.00 | 64 | 1009.4 |
| 20260506145606 | 69 | 211 | 2.0 | 7.0 | 0.00 | 0.00 | 0.00 | 65 | 1009.3 |
| 20260506145105 | 69 | 210 | 4.0 | 9.0 | 0.00 | 0.00 | 0.00 | 65 | 1009.4 |
| 20260506144605 | 69 | 207 | 3.0 | 9.0 | 0.00 | 0.00 | 0.00 | 66 | 1009.5 |
| 20260506144106 | 68 | 201 | 4.0 | 9.0 | 0.00 | 0.00 | 0.00 | 67 | 1009.4 |
| 20260506143605 | 68 | 211 | 5.0 | 9.0 | 0.00 | 0.00 | 0.00 | 67 | 1009.4 |
| 20260506143105 | 68 | 210 | 3.0 | 12.0 | 0.00 | 0.00 | 0.00 | 67 | 1009.5 |
| 20260506142605 | 67 | 200 | 2.0 | 3.0 | 0.00 | 0.00 | 0.00 | 70 | 1009.5 |
| 20260506142106 | 67 | 191 | 3.0 | 8.0 | 0.00 | 0.00 | 0.00 | 69 | 1009.4 |
| 20260506141605 | 67 | 228 | 5.0 | 9.0 | 0.00 | 0.00 | 0.00 | 70 | 1009.4 |
| 20260506141105 | 66 | 212 | 4.0 | 8.0 | 0.00 | 0.00 | 0.00 | 71 | 1009.4 |
| 20260506140606 | 66 | 202 | 2.0 | 7.0 | 0.00 | 0.00 | 0.00 | 72 | 1009.4 |
| 20260506135605 | 66 | 237 | 3.0 | 8.0 | 0.00 | 0.00 | 0.00 | 72 | 1009.3 |
| 20260506135106 | 66 | 188 | 2.0 | 9.0 | 0.00 | 0.00 | 0.00 | 72 | 1009.3 |
| 20260506134105 | 65 | 184 | 3.0 | 12.0 | 0.00 | 0.00 | 0.00 | 74 | 1009.4 |
| 20260506133607 | 65 | 213 | 2.0 | 9.0 | 0.00 | 0.00 | 0.00 | 74 | 1009.5 |
| 20260506133106 | 65 | 195 | 2.0 | 9.0 | 0.00 | 0.00 | 0.00 | 75 | 1009.3 |
| 20260506132605 | 65 | 175 | 3.0 | 10.0 | 0.00 | 0.00 | 0.00 | 75 | 1009.4 |
| 20260506132106 | 64 | 215 | 3.0 | 7.0 | 0.00 | 0.00 | 0.00 | 75 | 1009.4 |
| 20260506130606 | 63 | 200 | 3.0 | 7.0 | 0.00 | 0.00 | 0.00 | 78 | 1009.9 |
| 20260506125605 | 63 | 197 | 3.0 | 6.0 | 0.00 | 0.00 | 0.00 | 79 | 1010.3 |
| 20260506125106 | 63 | 189 | 4.0 | 9.0 | 0.00 | 0.00 | 0.00 | 79 | 1010.2 |
| 20260506124605 | 63 | 219 | 2.0 | 9.0 | 0.00 | 0.00 | 0.00 | 79 | 1010.2 |
| 20260506124106 | 62 | 182 | 3.0 | 7.0 | 0.00 | 0.00 | 0.00 | 79 | 1010.0 |
| 20260506123605 | 62 | 247 | 2.0 | 7.0 | 0.00 | 0.00 | 0.00 | 79 | 1010.0 |
| 20260506123105 | 62 | 232 | 1.0 | 8.0 | 0.00 | 0.00 | 0.00 | 80 | 1010.0 |
| 20260506122606 | 62 | 217 | 2.0 | 8.0 | 0.00 | 0.00 | 0.00 | 80 | 1009.8 |
| 20260506121605 | 61 | 192 | 2.0 | 9.0 | 0.00 | 0.00 | 0.00 | 82 | 1010.0 |
| 20260506121105 | 61 | 189 | 3.0 | 9.0 | 0.00 | 0.00 | 0.00 | 82 | 1010.3 |
| 20260506120606 | 61 | 245 | 2.0 | 7.0 | 0.00 | 0.00 | 0.00 | 82 | 1010.3 |
| 20260506120106 | 60 | 163 | 2.0 | 8.0 | 0.00 | 0.00 | 0.00 | 83 | 1010.1 |
| 20260506115605 | 60 | 223 | 4.0 | 9.0 | 0.00 | 0.00 | 0.00 | 83 | 1010.0 |
| 20260506115105 | 60 | 220 | 3.0 | 8.0 | 0.00 | 0.00 | 0.00 | 83 | 1010.1 |
| 20260506114106 | 59 | 202 | 3.0 | 6.0 | 0.00 | 0.00 | 0.00 | 84 | 1010.1 |
| 20260506113606 | 59 | 166 | 2.0 | 5.0 | 0.00 | 0.00 | 0.00 | 85 | 1010.4 |
| 20260506113106 | 59 | 252 | 1.0 | 5.0 | 0.00 | 0.00 | 0.00 | 86 | 1010.5 |
| 20260506112105 | 58 | 163 | 2.0 | 5.0 | 0.00 | 0.00 | 0.00 | 86 | 1010.6 |
| 20260506111605 | 58 | 191 | 2.0 | 5.0 | 0.00 | 0.00 | 0.00 | 86 | 1010.7 |
| 20260506111105 | 58 | 142 | 1.0 | 3.0 | 0.00 | 0.00 | 0.00 | 86 | 1011.0 |
| 20260506110605 | 58 | 233 | 1.0 | 7.0 | 0.00 | 0.00 | 0.00 | 86 | 1010.9 |
| 20260506105605 | 58 | 224 | 2.0 | 6.0 | 0.00 | 0.00 | 0.00 | 86 | 1010.6 |
| 20260506104605 | 58 | 236 | 1.0 | 5.0 | 0.00 | 0.00 | 0.00 | 87 | 1010.7 |
| 20260506104105 | 58 | 226 | 2.0 | 6.0 | 0.00 | 0.00 | 0.00 | 87 | 1010.5 |
| 20260506103605 | 58 | 223 | 2.0 | 6.0 | 0.00 | 0.00 | 0.00 | 87 | 1010.6 |
| 20260506103105 | 58 | 190 | 2.0 | 5.0 | 0.00 | 0.00 | 0.00 | 87 | 1010.6 |
| 20260506102605 | 58 | 169 | 3.0 | 6.0 | 0.00 | 0.00 | 0.00 | 87 | 1010.5 |
| 20260506102106 | 58 | 201 | 1.0 | 5.0 | 0.00 | 0.00 | 0.00 | 87 | 1010.5 |
| 20260506101605 | 58 | 176 | 2.0 | 5.0 | 0.00 | 0.00 | 0.00 | 87 | 1010.5 |
| 20260506101106 | 58 | 214 | 2.0 | 5.0 | 0.00 | 0.00 | 0.00 | 87 | 1010.6 |
| 20260506100605 | 58 | 189 | 1.0 | 3.0 | 0.00 | 0.00 | 0.00 | 87 | 1010.7 |
| 20260506100105 | 58 | 205 | 1.0 | 3.0 | 0.00 | 0.00 | 0.00 | 86 | 1010.7 |
| 20260506095105 | 58 | 204 | 2.0 | 6.0 | 0.00 | 0.00 | 0.00 | 86 | 1010.6 |
| 20260506094606 | 58 | 213 | 3.0 | 6.0 | 0.00 | 0.00 | 0.00 | 86 | 1010.6 |
| 20260506094106 | 58 | 232 | 3.0 | 6.0 | 0.00 | 0.00 | 0.00 | 86 | 1010.6 |
| 20260506093606 | 58 | 188 | 2.0 | 6.0 | 0.00 | 0.00 | 0.00 | 86 | 1010.7 |
| 20260506093106 | 58 | 260 | 1.0 | 6.0 | 0.00 | 0.00 | 0.00 | 86 | 1010.6 |
| 20260506092606 | 58 | 201 | 1.0 | 3.0 | 0.00 | 0.00 | 0.00 | 85 | 1010.6 |
| 20260506091105 | 58 | 192 | 2.0 | 6.0 | 0.00 | 0.00 | 0.00 | 85 | 1010.6 |
| 20260506090605 | 58 | 201 | 2.0 | 6.0 | 0.00 | 0.00 | 0.00 | 84 | 1010.6 |
| 20260506090105 | 58 | 214 | 2.0 | 6.0 | 0.00 | 0.00 | 0.00 | 84 | 1010.7 |
| 20260506085604 | 58 | 255 | 2.0 | 8.0 | 0.00 | 0.00 | 0.00 | 84 | 1010.6 |
| 20260506085105 | 58 | 197 | 3.0 | 7.0 | 0.00 | 0.00 | 0.00 | 84 | 1010.5 |
| 20260506084606 | 58 | 188 | 3.0 | 8.0 | 0.00 | 0.00 | 0.00 | 84 | 1010.5 |
| 20260506084105 | 58 | 185 | 2.0 | 7.0 | 0.00 | 0.00 | 0.00 | 83 | 1010.6 |
| 20260506083605 | 58 | 191 | 3.0 | 8.0 | 0.00 | 0.00 | 0.00 | 83 | 1010.7 |
| 20260506083105 | 59 | 202 | 1.0 | 6.0 | 0.00 | 0.00 | 0.00 | 83 | 1010.7 |
| 20260506082605 | 59 | 209 | 2.0 | 7.0 | 0.00 | 0.00 | 0.00 | 83 | 1010.7 |
| 20260506081605 | 59 | 193 | 1.0 | 6.0 | 0.00 | 0.00 | 0.00 | 82 | 1010.7 |
| 20260506081106 | 59 | 211 | 2.0 | 7.0 | 0.00 | 0.00 | 0.00 | 82 | 1010.7 |
| 20260506080104 | 59 | 214 | 1.0 | 6.0 | 0.00 | 0.00 | 0.00 | 81 | 1010.6 |
| 20260506073104 | 60 | 198 | 3.0 | 8.0 | 0.00 | 0.00 | 0.00 | 80 | 1010.7 |
| 20260506072606 | 60 | 240 | 3.0 | 7.0 | 0.00 | 0.00 | 0.00 | 80 | 1010.7 |
| 20260506072105 | 60 | 235 | 4.0 | 8.0 | 0.00 | 0.00 | 0.00 | 79 | 1010.6 |
| 20260506071605 | 60 | 207 | 4.0 | 7.0 | 0.00 | 0.00 | 0.00 | 79 | 1010.6 |
| 20260506071105 | 60 | 208 | 4.0 | 8.0 | 0.00 | 0.00 | 0.00 | 79 | 1010.6 |
| 20260506070604 | 60 | 206 | 1.0 | 8.0 | 0.00 | 0.00 | 0.00 | 79 | 1010.6 |
| 20260506070105 | 60 | 187 | 5.0 | 8.0 | 0.00 | 0.00 | 0.00 | 79 | 1010.5 |
| 20260506062105 | 61 | 247 | 3.0 | 12.0 | 0.00 | 0.00 | 0.00 | 76 | 1010.5 |
| 20260506061605 | 61 | 178 | 2.0 | 8.0 | 0.00 | 0.00 | 0.00 | 76 | 1010.5 |
| 20260506060606 | 62 | 191 | 3.0 | 12.0 | 0.00 | 0.00 | 0.00 | 75 | 1010.4 |
| 20260506051105 | 62 | 186 | 4.0 | 10.0 | 0.00 | 0.00 | 0.00 | 71 | 1010.6 |
| 20260506050605 | 62 | 212 | 2.0 | 9.0 | 0.00 | 0.00 | 0.00 | 71 | 1010.7 |
| 20260506045104 | 62 | 182 | 2.0 | 8.0 | 0.00 | 0.00 | 0.00 | 70 | 1010.8 |
| 20260506044605 | 62 | 198 | 3.0 | 10.0 | 0.00 | 0.00 | 0.00 | 70 | 1010.8 |
| 20260506044106 | 62 | 194 | 3.0 | 10.0 | 0.00 | 0.00 | 0.00 | 70 | 1010.8 |
| 20260506043604 | 62 | 201 | 3.0 | 6.0 | 0.00 | 0.00 | 0.00 | 70 | 1010.9 |
| 20260506043106 | 62 | 193 | 3.0 | 7.0 | 0.00 | 0.00 | 0.00 | 69 | 1010.9 |
| 20260506042605 | 62 | 227 | 3.0 | 8.0 | 0.00 | 0.00 | 0.00 | 69 | 1010.9 |
| 20260506042104 | 62 | 188 | 4.0 | 9.0 | 0.00 | 0.00 | 0.00 | 69 | 1010.9 |
| 20260506041606 | 62 | 202 | 3.0 | 9.0 | 0.00 | 0.00 | 0.00 | 69 | 1010.9 |
| 20260506041105 | 62 | 194 | 2.0 | 7.0 | 0.00 | 0.00 | 0.00 | 69 | 1010.8 |
| 20260506040605 | 62 | 186 | 2.0 | 9.0 | 0.00 | 0.00 | 0.00 | 69 | 1010.9 |
| 20260506040105 | 62 | 181 | 3.0 | 9.0 | 0.00 | 0.00 | 0.00 | 69 | 1011.0 |
| 20260506035104 | 62 | 195 | 5.0 | 9.0 | 0.00 | 0.00 | 0.00 | 68 | 1010.8 |
| 20260506034605 | 62 | 241 | 4.0 | 8.0 | 0.00 | 0.00 | 0.00 | 68 | 1010.9 |
| 20260506034105 | 62 | 235 | 3.0 | 8.0 | 0.00 | 0.00 | 0.00 | 68 | 1010.8 |
| 20260506033605 | 62 | 192 | 3.0 | 8.0 | 0.00 | 0.00 | 0.00 | 68 | 1010.8 |
| 20260506033104 | 62 | 191 | 3.0 | 9.0 | 0.00 | 0.00 | 0.00 | 68 | 1010.9 |
| 20260506032604 | 62 | 202 | 3.0 | 7.0 | 0.00 | 0.00 | 0.00 | 68 | 1010.8 |
| 20260506032104 | 62 | 183 | 2.0 | 6.0 | 0.00 | 0.00 | 0.00 | 69 | 1010.8 |
| 20260506031605 | 62 | 199 | 4.0 | 9.0 | 0.00 | 0.00 | 0.00 | 68 | 1010.7 |
| 20260506031104 | 62 | 187 | 4.0 | 12.0 | 0.00 | 0.00 | 0.00 | 68 | 1010.8 |
| 20260506030605 | 62 | 228 | 4.0 | 9.0 | 0.00 | 0.00 | 0.00 | 68 | 1010.7 |
| 20260506030104 | 62 | 234 | 2.0 | 9.0 | 0.00 | 0.00 | 0.00 | 68 | 1010.8 |
| 20260506025605 | 62 | 172 | 3.0 | 9.0 | 0.00 | 0.00 | 0.00 | 68 | 1010.7 |
| 20260506025105 | 62 | 202 | 2.0 | 6.0 | 0.00 | 0.00 | 0.00 | 67 | 1010.8 |
| 20260506024605 | 62 | 217 | 4.0 | 9.0 | 0.00 | 0.00 | 0.00 | 67 | 1010.8 |
| 20260506024104 | 62 | 262 | 2.0 | 7.0 | 0.00 | 0.00 | 0.00 | 67 | 1010.9 |
| 20260506023604 | 63 | 217 | 1.0 | 7.0 | 0.00 | 0.00 | 0.00 | 67 | 1010.8 |
| 20260506023105 | 63 | 184 | 3.0 | 7.0 | 0.00 | 0.00 | 0.00 | 67 | 1010.8 |
| 20260506022604 | 63 | 208 | 3.0 | 8.0 | 0.00 | 0.00 | 0.00 | 66 | 1010.8 |
| 20260506022104 | 63 | 197 | 3.0 | 9.0 | 0.00 | 0.00 | 0.00 | 66 | 1010.8 |
| 20260506021605 | 63 | 222 | 3.0 | 7.0 | 0.00 | 0.00 | 0.00 | 66 | 1010.9 |
| 20260506021105 | 63 | 213 | 2.0 | 10.0 | 0.00 | 0.00 | 0.00 | 65 | 1010.9 |
| 20260506020604 | 64 | 223 | 5.0 | 12.0 | 0.00 | 0.00 | 0.00 | 65 | 1010.8 |
| 20260506020104 | 64 | 234 | 3.0 | 10.0 | 0.00 | 0.00 | 0.00 | 64 | 1010.8 |
| 20260506015604 | 64 | 234 | 3.0 | 8.0 | 0.00 | 0.00 | 0.00 | 64 | 1010.7 |
| 20260506015105 | 64 | 230 | 6.0 | 12.0 | 0.00 | 0.00 | 0.00 | 64 | 1010.6 |
| 20260506014604 | 64 | 238 | 2.0 | 8.0 | 0.00 | 0.00 | 0.00 | 64 | 1010.5 |
| 20260506014105 | 64 | 190 | 6.0 | 12.0 | 0.00 | 0.00 | 0.00 | 64 | 1010.5 |
| 20260506013605 | 64 | 245 | 4.0 | 9.0 | 0.00 | 0.00 | 0.00 | 63 | 1010.4 |
| 20260506013104 | 65 | 34 | 3.0 | 7.0 | 0.00 | 0.00 | 0.00 | 63 | 1010.2 |
| 20260506012604 | 65 | 188 | 3.0 | 9.0 | 0.00 | 0.00 | 0.00 | 63 | 1010.2 |
| 20260506012104 | 65 | 202 | 3.0 | 7.0 | 0.00 | 0.00 | 0.00 | 63 | 1010.2 |
| 20260506011604 | 65 | 219 | 5.0 | 10.0 | 0.00 | 0.00 | 0.00 | 62 | 1010.2 |
| 20260506011105 | 65 | 200 | 3.0 | 9.0 | 0.00 | 0.00 | 0.00 | 62 | 1010.2 |
| 20260506010604 | 65 | 202 | 2.0 | 6.0 | 0.00 | 0.00 | 0.00 | 62 | 1010.1 |
| 20260506010104 | 66 | 208 | 2.0 | 7.0 | 0.00 | 0.00 | 0.00 | 62 | 1010.1 |
| 20260506005104 | 66 | 222 | 5.0 | 9.0 | 0.00 | 0.00 | 0.00 | 61 | 1010.1 |
| 20260506004605 | 66 | 181 | 2.0 | 8.0 | 0.00 | 0.00 | 0.00 | 61 | 1010.1 |
| 20260506003605 | 67 | 190 | 3.0 | 9.0 | 0.00 | 0.00 | 0.00 | 60 | 1010.0 |
| 20260506003104 | 67 | 230 | 2.0 | 9.0 | 0.00 | 0.00 | 0.00 | 59 | 1010.0 |
| 20260506002604 | 67 | 224 | 3.0 | 9.0 | 0.00 | 0.00 | 0.00 | 59 | 1009.9 |
| 20260506002105 | 68 | 216 | 4.0 | 8.0 | 0.00 | 0.00 | 0.00 | 58 | 1009.8 |
| 20260506001605 | 68 | 239 | 3.0 | 9.0 | 0.00 | 0.00 | 0.00 | 58 | 1009.7 |
| 20260506001105 | 68 | 181 | 3.0 | 7.0 | 0.00 | 0.00 | 0.00 | 57 | 1009.6 |
| 20260506000604 | 69 | 182 | 2.0 | 7.0 | 0.00 | 0.00 | 0.00 | 56 | 1009.6 |
| 20260505235104 | 69 | 239 | 3.0 | 10.0 | 0.00 | 0.00 | 0.00 | 54 | 1009.2 |
| 20260505234605 | 70 | 191 | 3.0 | 10.0 | 0.00 | 0.00 | 0.00 | 54 | 1009.1 |
| 20260505234104 | 70 | 209 | 3.0 | 7.0 | 0.00 | 0.00 | 0.00 | 53 | 1009.0 |
| 20260505233606 | 70 | 196 | 2.0 | 10.0 | 0.00 | 0.00 | 0.00 | 53 | 1009.0 |
| 20260505233104 | 71 | 217 | 6.0 | 10.0 | 0.00 | 0.00 | 0.00 | 52 | 1008.9 |
| 20260505232604 | 71 | 174 | 1.0 | 6.0 | 0.00 | 0.00 | 0.00 | 53 | 1008.9 |
| 20260505232104 | 72 | 205 | 3.0 | 8.0 | 0.00 | 0.00 | 0.00 | 51 | 1008.8 |
| 20260505231605 | 72 | 197 | 4.0 | 15.0 | 0.00 | 0.00 | 0.00 | 50 | 1008.7 |
| 20260505231104 | 73 | 226 | 3.0 | 9.0 | 0.00 | 0.00 | 0.00 | 51 | 1008.6 |
| 20260505230604 | 73 | 217 | 3.0 | 7.0 | 0.00 | 0.00 | 0.00 | 50 | 1008.4 |
| 20260505230104 | 73 | 174 | 4.0 | 12.0 | 0.00 | 0.00 | 0.00 | 49 | 1008.5 |
| 20260505225104 | 74 | 190 | 3.0 | 7.0 | 0.00 | 0.00 | 0.00 | 49 | 1008.3 |
| 20260505224604 | 74 | 199 | 2.0 | 6.0 | 0.00 | 0.00 | 0.00 | 48 | 1008.2 |
| 20260505224104 | 74 | 198 | 3.0 | 9.0 | 0.00 | 0.00 | 0.00 | 48 | 1008.1 |
| 20260505223105 | 75 | 209 | 5.0 | 13.0 | 0.00 | 0.00 | 0.00 | 47 | 1008.0 |
| 20260505222104 | 76 | 221 | 2.0 | 9.0 | 0.00 | 0.00 | 0.00 | 46 | 1007.7 |
| 20260505221604 | 76 | 197 | 3.0 | 8.0 | 0.00 | 0.00 | 0.00 | 47 | 1007.7 |
| 20260505221105 | 76 | 177 | 2.0 | 7.0 | 0.00 | 0.00 | 0.00 | 47 | 1007.5 |
| 20260505220604 | 76 | 231 | 6.0 | 12.0 | 0.00 | 0.00 | 0.00 | 46 | 1007.5 |
| 20260505215104 | 77 | 198 | 5.0 | 13.0 | 0.00 | 0.00 | 0.00 | 46 | 1007.7 |
| 20260505214605 | 77 | 240 | 3.0 | 9.0 | 0.00 | 0.00 | 0.00 | 44 | 1007.7 |
| 20260505212604 | 78 | 211 | 5.0 | 16.0 | 0.00 | 0.00 | 0.00 | 43 | 1007.5 |
| 20260505212104 | 78 | 192 | 5.0 | 15.0 | 0.00 | 0.00 | 0.00 | 42 | 1007.4 |
| 20260505211104 | 79 | 214 | 6.0 | 13.0 | 0.00 | 0.00 | 0.00 | 42 | 1007.2 |
| 20260505210604 | 79 | 221 | 5.0 | 10.0 | 0.00 | 0.00 | 0.00 | 41 | 1007.1 |
| 20260505205104 | 80 | 191 | 5.0 | 10.0 | 0.00 | 0.00 | 0.00 | 39 | 1007.0 |
| 20260505204605 | 80 | 185 | 6.0 | 15.0 | 0.00 | 0.00 | 0.00 | 39 | 1007.1 |
| 20260505204104 | 80 | 225 | 6.0 | 12.0 | 0.00 | 0.00 | 0.00 | 39 | 1007.0 |
| 20260505203604 | 81 | 241 | 3.0 | 9.0 | 0.00 | 0.00 | 0.00 | 39 | 1007.1 |
| 20260505203105 | 81 | 216 | 5.0 | 13.0 | 0.00 | 0.00 | 0.00 | 38 | 1007.1 |
| 20260505202605 | 81 | 196 | 5.0 | 12.0 | 0.00 | 0.00 | 0.00 | 38 | 1007.0 |
| 20260505202104 | 82 | 202 | 4.0 | 13.0 | 0.00 | 0.00 | 0.00 | 37 | 1007.0 |